Stündliche Wetter Düsseldorf

Heute, 18 Juni, Freitag

Zeit Temperatur Niederschläge Wind Luftdruck Luftfeuchtigkeit
00:00 +23°C° 0 mm 2 m/S 756 mmHg 92%
01:00 +23°C° 0.5 mm 2 m/S 756 mmHg 93%
02:00 +21°C° 0.5 mm 2 m/S 756 mmHg 95%
03:00 +21°C° 0.5 mm 2 m/S 756 mmHg 96%
04:00 +23°C° 0.2 mm 2 m/S 756 mmHg 94%
05:00 +23°C° 0.2 mm 1 m/S 756 mmHg 92%
06:00 +24°C° 0 mm 1 m/S 756 mmHg 90%
07:00 +25°C° 0 mm 1 m/S 756 mmHg 83%
08:00 +27°C° 0 mm 1 m/S 756 mmHg 76%
09:00 +28°C° 0 mm 1 m/S 756 mmHg 69%
10:00 +30°C° 0 mm 1 m/S 756 mmHg 58%
11:00 +32°C° 0 mm 2 m/S 756 mmHg 47%
12:00 +34°C° 0 mm 2 m/S 756 mmHg 39%
13:00 +35°C° 0 mm 2 m/S 755 mmHg 38%
14:00 +35°C° 0 mm 3 m/S 755 mmHg 36%
15:00 +36°C° 0 mm 4 m/S 754 mmHg 35%
16:00 +34°C° 0.1 mm 3 m/S 754 mmHg 44%
17:00 +31°C° 0.1 mm 3 m/S 755 mmHg 52%
18:00 +29°C° 0.1 mm 3 m/S 755 mmHg 60%
19:00 +27°C° 0.2 mm 3 m/S 755 mmHg 66%
20:00 +26°C° 0.2 mm 3 m/S 756 mmHg 72%
21:00 +24°C° 0.2 mm 3 m/S 756 mmHg 78%
22:00 +24°C° 0 mm 3 m/S 756 mmHg 80%
23:00 +22°C° 0 mm 3 m/S 756 mmHg 82%

Morgen, 19 Juni, Samstag

Zeit Temperatur Niederschläge Wind Luftdruck Luftfeuchtigkeit
00:00 +21°C° 0 mm 3 m/S 757 mmHg 84%
01:00 +21°C° 0 mm 3 m/S 757 mmHg 84%
02:00 +20°C° 0 mm 3 m/S 757 mmHg 85%
03:00 +20°C° 0 mm 3 m/S 757 mmHg 85%
04:00 +20°C° 0 mm 3 m/S 757 mmHg 83%
05:00 +21°C° 0 mm 4 m/S 758 mmHg 80%
06:00 +21°C° 0 mm 4 m/S 758 mmHg 78%
07:00 +22°C° 0 mm 4 m/S 758 mmHg 72%
08:00 +24°C° 0 mm 3 m/S 758 mmHg 66%
09:00 +25°C° 0 mm 3 m/S 758 mmHg 59%
10:00 +26°C° 0 mm 3 m/S 758 mmHg 56%
11:00 +27°C° 0 mm 3 m/S 758 mmHg 52%
12:00 +28°C° 0 mm 2 m/S 758 mmHg 48%
13:00 +28°C° 0 mm 2 m/S 758 mmHg 48%
14:00 +29°C° 0 mm 2 m/S 757 mmHg 47%
15:00 +29°C° 0 mm 2 m/S 757 mmHg 47%
16:00 +29°C° 0 mm 2 m/S 757 mmHg 50%
17:00 +28°C° 0 mm 3 m/S 756 mmHg 54%
18:00 +27°C° 0 mm 3 m/S 756 mmHg 57%
19:00 +26°C° 0 mm 3 m/S 756 mmHg 62%
20:00 +25°C° 0 mm 4 m/S 755 mmHg 67%
21:00 +22°C° 0 mm 4 m/S 755 mmHg 71%
22:00 +22°C° 0.4 mm 4 m/S 755 mmHg 78%
23:00 +21°C° 0.4 mm 4 m/S 754 mmHg 84%

übermorgen, 20 Juni, Sonntag

Zeit Temperatur Niederschläge Wind Luftdruck Luftfeuchtigkeit
00:00 +20°C° 0.4 mm 4 m/S 753 mmHg 90%
01:00 +20°C° 1.1 mm 3 m/S 753 mmHg 92%
02:00 +20°C° 1.1 mm 3 m/S 752 mmHg 94%
03:00 +20°C° 1.1 mm 2 m/S 751 mmHg 95%
04:00 +20°C° 2 mm 2 m/S 751 mmHg 95%
05:00 +21°C° 2 mm 3 m/S 751 mmHg 95%
06:00 +21°C° 2 mm 3 m/S 751 mmHg 94%
07:00 +22°C° 0.1 mm 4 m/S 752 mmHg 87%
08:00 +23°C° 0.1 mm 5 m/S 752 mmHg 80%
09:00 +25°C° 0.1 mm 5 m/S 752 mmHg 73%
10:00 +26°C° 0 mm 5 m/S 752 mmHg 67%
11:00 +27°C° 0 mm 4 m/S 752 mmHg 62%
12:00 +27°C° 0 mm 4 m/S 752 mmHg 57%
13:00 +28°C° 0 mm 3 m/S 752 mmHg 55%
14:00 +28°C° 0 mm 3 m/S 751 mmHg 54%
15:00 +28°C° 0 mm 2 m/S 751 mmHg 53%
16:00 +25°C° 2.8 mm 2 m/S 751 mmHg 67%
17:00 +23°C° 2.8 mm 2 m/S 751 mmHg 81%
18:00 +20°C° 2.8 mm 2 m/S 752 mmHg 94%
19:00 +19°C° 0.2 mm 2 m/S 752 mmHg 94%
20:00 +20°C° 0.2 mm 1 m/S 752 mmHg 93%
21:00 +20°C° 0.2 mm 1 m/S 753 mmHg 93%
22:00 +19°C° 0.1 mm 1 m/S 753 mmHg 93%
23:00 +19°C° 0.1 mm 1 m/S 753 mmHg 93%

21 Juni, Montag

Zeit Temperatur Niederschläge Wind Luftdruck Luftfeuchtigkeit
00:00 +17°C° 0.1 mm 2 m/S 753 mmHg 93%
01:00 +16°C° 0 mm 2 m/S 753 mmHg 94%
02:00 +16°C° 0 mm 1 m/S 753 mmHg 95%
03:00 +15°C° 0 mm 1 m/S 753 mmHg 96%
04:00 +15°C° 0 mm 1 m/S 753 mmHg 93%
05:00 +16°C° 0 mm 1 m/S 753 mmHg 91%
06:00 +16°C° 0 mm 1 m/S 754 mmHg 89%
07:00 +18°C° 0 mm 1 m/S 754 mmHg 83%
08:00 +19°C° 0 mm 1 m/S 754 mmHg 78%
09:00 +20°C° 0 mm 1 m/S 754 mmHg 72%
10:00 +21°C° 0 mm 2 m/S 754 mmHg 67%
11:00 +23°C° 0 mm 2 m/S 754 mmHg 62%
12:00 +24°C° 0 mm 2 m/S 754 mmHg 56%
13:00 +25°C° 0 mm 3 m/S 754 mmHg 55%
14:00 +25°C° 0 mm 3 m/S 754 mmHg 54%
15:00 +25°C° 0 mm 3 m/S 754 mmHg 53%
16:00 +24°C° 0 mm 3 m/S 754 mmHg 57%
17:00 +24°C° 0 mm 3 m/S 754 mmHg 60%
18:00 +22°C° 0 mm 4 m/S 754 mmHg 64%
19:00 +20°C° 0 mm 4 m/S 755 mmHg 68%
20:00 +19°C° 0 mm 4 m/S 755 mmHg 73%
21:00 +18°C° 0 mm 4 m/S 755 mmHg 78%
22:00 +17°C° 0.1 mm 4 m/S 755 mmHg 80%
23:00 +17°C° 0.1 mm 4 m/S 755 mmHg 82%

22 Juni, Dienstag

Zeit Temperatur Niederschläge Wind Luftdruck Luftfeuchtigkeit
00:00 +16°C° 0.1 mm 3 m/S 755 mmHg 84%
01:00 +16°C° 0.3 mm 3 m/S 755 mmHg 87%
02:00 +14°C° 0.3 mm 3 m/S 756 mmHg 89%
03:00 +15°C° 0.3 mm 2 m/S 756 mmHg 92%
04:00 +14°C° 1.1 mm 3 m/S 756 mmHg 93%
05:00 +14°C° 1.1 mm 3 m/S 756 mmHg 94%
06:00 +13°C° 1.1 mm 3 m/S 756 mmHg 95%
07:00 +14°C° 0.5 mm 3 m/S 757 mmHg 93%
08:00 +14°C° 0.5 mm 3 m/S 757 mmHg 91%
09:00 +16°C° 0.5 mm 3 m/S 757 mmHg 89%
10:00 +16°C° 0.1 mm 3 m/S 757 mmHg 87%
11:00 +17°C° 0.1 mm 3 m/S 757 mmHg 84%
12:00 +18°C° 0.1 mm 3 m/S 757 mmHg 81%
13:00 +18°C° 0 mm 4 m/S 757 mmHg 80%
14:00 +18°C° 0 mm 4 m/S 757 mmHg 78%
15:00 +18°C° 0 mm 4 m/S 758 mmHg 77%
16:00 +18°C° 0 mm 4 m/S 758 mmHg 77%
17:00 +17°C° 0 mm 4 m/S 758 mmHg 78%
18:00 +17°C° 0 mm 4 m/S 758 mmHg 79%
19:00 +15°C° 0 mm 4 m/S 758 mmHg 80%
20:00 +16°C° 0 mm 3 m/S 758 mmHg 81%
21:00 +14°C° 0 mm 3 m/S 758 mmHg 83%
22:00 +14°C° 0 mm 3 m/S 758 mmHg 83%
23:00 +14°C° 0 mm 3 m/S 759 mmHg 83%

23 Juni, Mittwoch

Zeit Temperatur Niederschläge Wind Luftdruck Luftfeuchtigkeit
00:00 +14°C° 0 mm 3 m/S 759 mmHg 83%
01:00 +14°C° 0 mm 3 m/S 759 mmHg 82%
02:00 +13°C° 0 mm 3 m/S 759 mmHg 82%
03:00 +13°C° 0 mm 3 m/S 759 mmHg 82%
04:00 +13°C° 0 mm 3 m/S 759 mmHg 82%
05:00 +13°C° 0 mm 3 m/S 759 mmHg 82%
06:00 +13°C° 0 mm 3 m/S 759 mmHg 83%
07:00 +14°C° 0 mm 3 m/S 759 mmHg 80%
08:00 +16°C° 0 mm 3 m/S 759 mmHg 77%
09:00 +17°C° 0 mm 3 m/S 759 mmHg 74%
10:00 +18°C° 0 mm 3 m/S 759 mmHg 70%
11:00 +20°C° 0 mm 3 m/S 759 mmHg 66%
12:00 +21°C° 0 mm 4 m/S 759 mmHg 62%
13:00 +21°C° 0 mm 4 m/S 759 mmHg 64%
14:00 +20°C° 0 mm 4 m/S 759 mmHg 66%
15:00 +20°C° 0 mm 4 m/S 759 mmHg 68%
16:00 +19°C° 0 mm 4 m/S 759 mmHg 69%
17:00 +19°C° 0 mm 3 m/S 759 mmHg 70%
18:00 +19°C° 0 mm 3 m/S 759 mmHg 72%
19:00 +18°C° 0 mm 3 m/S 760 mmHg 73%
20:00 +17°C° 0 mm 3 m/S 760 mmHg 75%
21:00 +17°C° 0 mm 3 m/S 760 mmHg 77%
22:00 +16°C° 0 mm 2 m/S 760 mmHg 80%
23:00 +15°C° 0 mm 2 m/S 761 mmHg 83%
Mehr zeigen

Wir brauchen deine Erlaubnis

Meteoprog und unser Service Anbieter werden persönliche Daten aufbewahren, so wie Cookies, Geräte Bezeichnung oder ähnliche Technologien von deinem Gerät und Prozess, so wie Persönliche Daten Inhalte und Werbungen, genauso wie social Media und den Verkehr zu analysieren.

  • Aufbewahrung und/oder Zugang zu deiner Geräte Informationen.

    Cookies, Geräte Bezeichnung oder andere Informationen, können aufbewahrt oder Zugang zu deinem Gerät erhalten, für den Grund, der oben angegeben wird.

  • Personalisierte Werbung und Inhalte, Messungen, Einblick in das Publikum und Produkt Entwicklung.

    Werbungen und Inhalte können personalisiert werden, basierend auf ein Profil. Mehr Daten können besser personalisierte Werbungen und Inhalte hinzufügen. Werbung und Inhalte können gezeigt und gemessen werden. Einblicke über das Publikum, welche die Werbung gesehen haben und den Inhalt, können abgeleitet werden. So wie Daten können genutzt werden, um es zu verbessern oder die Benutzer Erfahrung zu verbessern das System und die Software.

Wenn du “Ich stimme zu” klickst, erlaubst du uns, die Cookies zu benutzen die Geräte Bezeichnung, den Web oder ähnliche Technologien zu benutzen. Deine Settings, können in deinem Gerät bei deinem Browser geändert werden.

Für den bestimmten Zweck, berechtigten Interessen beruhen darauf, mehr als auf den Inhalt. Du kannst mehr darüber in unseren Privaten und Cookie Politik lesen.